N825BT KRSW-SKRG

Flight info

Callsign N825BT
Flight time 3h 1m
Altitude 39000
Route URSUS UP406 AKPEK AKPEK4C
Aircraft CL60/M-SBDE1E2E3FGHIJ4J5J7M3RWXYZ/LB1V1D1

Departure

Time 2026-04-24 22:00
Airport Southwest Florida International Airport (KRSW)

Arrival

Time 2026-04-25 01:01
Airport Jose Maria Córdova International Airport (SKRG)
Time Latitude Longitude Altitude Speed Heading
2026-04-24 21:31 26.53640 -81.76339 27 ft 0 kts 57°
2026-04-24 21:53 26.53640 -81.76338 27 ft 0 kts 57°
2026-04-24 21:53 26.53643 -81.76333 27 ft 2 kts 72°
2026-04-24 21:53 26.53626 -81.76314 27 ft 5 kts 169°
2026-04-24 21:54 26.53589 -81.76307 27 ft 0 kts 168°
2026-04-24 21:54 26.53570 -81.76304 27 ft 5 kts 182°
2026-04-24 21:54 26.53527 -81.76319 27 ft 7 kts 201°
2026-04-24 21:55 26.53467 -81.76341 27 ft 10 kts 185°
2026-04-24 21:55 26.53396 -81.76305 27 ft 12 kts 146°
2026-04-24 21:55 26.53319 -81.76241 27 ft 15 kts 120°
2026-04-24 21:55 26.53357 -81.76130 27 ft 17 kts 54°
2026-04-24 21:56 26.53434 -81.76012 27 ft 19 kts 53°
2026-04-24 21:56 26.53520 -81.75881 27 ft 24 kts 53°
2026-04-24 21:56 26.53632 -81.75707 27 ft 28 kts 54°
2026-04-24 21:56 26.53754 -81.75521 27 ft 30 kts 54°
2026-04-24 21:57 26.53881 -81.75324 27 ft 31 kts 54°
2026-04-24 21:57 26.54014 -81.75121 27 ft 33 kts 54°
2026-04-24 21:57 26.54154 -81.74908 27 ft 34 kts 54°
2026-04-24 21:57 26.54296 -81.74687 27 ft 35 kts 53°
2026-04-24 21:58 26.54444 -81.74461 27 ft 36 kts 53°
2026-04-24 21:58 26.54571 -81.74267 27 ft 21 kts 53°
2026-04-24 21:58 26.54640 -81.74159 27 ft 8 kts 56°
2026-04-24 21:58 26.54637 -81.74092 27 ft 10 kts 128°
2026-04-24 21:59 26.54574 -81.74049 27 ft 9 kts 217°
2026-04-24 21:59 26.54533 -81.74110 27 ft 37 kts 234°
2026-04-24 21:59 26.54173 -81.74659 27 ft 132 kts 233°
2026-04-24 21:59 26.53540 -81.75693 290 ft 178 kts 236°
2026-04-24 22:00 26.52813 -81.76883 1115 ft 191 kts 234°
2026-04-24 22:00 26.52065 -81.78097 2098 ft 199 kts 236°
2026-04-24 22:00 26.51291 -81.79415 3044 ft 214 kts 237°
2026-04-24 22:00 26.50440 -81.80823 3684 ft 223 kts 232°
2026-04-24 22:01 26.49185 -81.81857 4025 ft 237 kts 195°
2026-04-24 22:01 26.47491 -81.81999 4804 ft 255 kts 176°
2026-04-24 22:01 26.45663 -81.81861 5592 ft 273 kts 175°
2026-04-24 22:01 26.43737 -81.81688 6583 ft 282 kts 175°
2026-04-24 22:02 26.41785 -81.81493 7628 ft 288 kts 175°
2026-04-24 22:02 26.39788 -81.81267 8733 ft 292 kts 175°
2026-04-24 22:02 26.37777 -81.81015 9832 ft 296 kts 175°
2026-04-24 22:02 26.35688 -81.80732 10553 ft 315 kts 175°
2026-04-24 22:03 26.33381 -81.80418 10862 ft 346 kts 175°
2026-04-24 22:03 26.30956 -81.80100 11678 ft 356 kts 175°
2026-04-24 22:03 26.28470 -81.79781 12602 ft 362 kts 176°
2026-04-24 22:03 26.25960 -81.79449 13396 ft 370 kts 173°
2026-04-24 22:04 26.23382 -81.79058 14181 ft 378 kts 174°
2026-04-24 22:04 26.20743 -81.78664 15023 ft 384 kts 174°
2026-04-24 22:04 26.18067 -81.78274 15791 ft 391 kts 174°
2026-04-24 22:04 26.15350 -81.77876 16546 ft 397 kts 174°
2026-04-24 22:05 26.12608 -81.77469 17307 ft 402 kts 174°
2026-04-24 22:05 26.09839 -81.77051 18040 ft 406 kts 174°
2026-04-24 22:05 26.07023 -81.76627 18748 ft 411 kts 174°
2026-04-24 22:05 26.04148 -81.76188 19418 ft 416 kts 174°
2026-04-24 22:06 26.01276 -81.75749 20070 ft 421 kts 174°
2026-04-24 22:06 25.98348 -81.75299 20710 ft 425 kts 174°
2026-04-24 22:06 25.95441 -81.74849 21322 ft 429 kts 174°
2026-04-24 22:06 25.92462 -81.74384 21936 ft 433 kts 174°
2026-04-24 22:07 25.89423 -81.73910 22504 ft 438 kts 174°
2026-04-24 22:07 25.86397 -81.73435 23059 ft 442 kts 174°
2026-04-24 22:07 25.83343 -81.72955 23596 ft 446 kts 174°
2026-04-24 22:07 25.80232 -81.72460 24091 ft 451 kts 174°
2026-04-24 22:08 25.77156 -81.71962 24550 ft 456 kts 174°
2026-04-24 22:08 25.73979 -81.71437 25039 ft 460 kts 174°
2026-04-24 22:08 25.70774 -81.70905 25527 ft 463 kts 174°
2026-04-24 22:08 25.67618 -81.70367 25968 ft 468 kts 173°
2026-04-24 22:09 25.64423 -81.69307 26401 ft 478 kts 158°
2026-04-24 22:09 25.61567 -81.67389 26783 ft 486 kts 142°
2026-04-24 22:09 25.59255 -81.64688 27144 ft 492 kts 126°
2026-04-24 22:09 25.57333 -81.61551 27488 ft 496 kts 123°
2026-04-24 22:10 25.55403 -81.58358 27889 ft 499 kts 123°
2026-04-24 22:10 25.53459 -81.55149 28268 ft 502 kts 123°
2026-04-24 22:10 25.51519 -81.51946 28619 ft 505 kts 123°
2026-04-24 22:10 25.49555 -81.48704 28969 ft 508 kts 123°
2026-04-24 22:11 25.47583 -81.45451 29296 ft 511 kts 123°
2026-04-24 22:11 25.45602 -81.42183 29612 ft 513 kts 123°
2026-04-24 22:11 25.43605 -81.38890 30009 ft 513 kts 123°
2026-04-24 22:11 25.41620 -81.35619 30431 ft 513 kts 123°
2026-04-24 22:12 25.39653 -81.32378 30867 ft 512 kts 124°
2026-04-24 22:12 25.37654 -81.29086 31276 ft 511 kts 123°
2026-04-24 22:12 25.35693 -81.25859 31653 ft 511 kts 123°
2026-04-24 22:12 25.33708 -81.22594 32002 ft 512 kts 123°
2026-04-24 22:13 25.31721 -81.19326 32354 ft 512 kts 123°
2026-04-24 22:13 25.29736 -81.16065 32704 ft 512 kts 123°
2026-04-24 22:13 25.27768 -81.12833 33060 ft 511 kts 123°
2026-04-24 22:13 25.25789 -81.09585 33402 ft 511 kts 123°
2026-04-24 22:14 25.23798 -81.06319 33744 ft 511 kts 123°
2026-04-24 22:14 25.21822 -81.03080 34082 ft 510 kts 123°
2026-04-24 22:14 25.19829 -80.99815 34400 ft 509 kts 123°
2026-04-24 22:14 25.17853 -80.96579 34680 ft 510 kts 123°
2026-04-24 22:15 25.15864 -80.93325 34972 ft 510 kts 123°
2026-04-24 22:15 25.13889 -80.90095 35231 ft 510 kts 123°
2026-04-24 22:15 25.11922 -80.86879 35499 ft 510 kts 123°
2026-04-24 22:15 25.09915 -80.83602 35773 ft 510 kts 123°
2026-04-24 22:16 25.07943 -80.80384 36041 ft 510 kts 123°
2026-04-24 22:16 25.05974 -80.77171 36291 ft 510 kts 123°
2026-04-24 22:16 25.03980 -80.73920 36524 ft 510 kts 123°
2026-04-24 22:16 25.02003 -80.70701 36764 ft 510 kts 123°
2026-04-24 22:17 25.00023 -80.67475 36958 ft 510 kts 123°
2026-04-24 22:17 24.98011 -80.64204 37182 ft 510 kts 123°
2026-04-24 22:17 24.96035 -80.60990 37380 ft 511 kts 123°
2026-04-24 22:17 24.94048 -80.57761 37601 ft 510 kts 123°
2026-04-24 22:18 24.92048 -80.54514 37809 ft 510 kts 123°
2026-04-24 22:18 24.90061 -80.51289 37998 ft 511 kts 123°
2026-04-24 22:18 24.88078 -80.48073 38179 ft 510 kts 123°
2026-04-24 22:18 24.86081 -80.44835 38361 ft 510 kts 123°
2026-04-24 22:19 24.84089 -80.41608 38502 ft 510 kts 123°
2026-04-24 22:19 24.82090 -80.38373 38668 ft 510 kts 123°
2026-04-24 22:19 24.80101 -80.35155 38806 ft 511 kts 123°
2026-04-24 22:19 24.78094 -80.31911 38915 ft 511 kts 124°
2026-04-24 22:20 24.76113 -80.28709 38926 ft 514 kts 124°
2026-04-24 22:20 24.72060 -80.22167 38928 ft 519 kts 124°
2026-04-24 22:21 24.67990 -80.15606 38929 ft 522 kts 124°
2026-04-24 22:21 24.63895 -80.09013 38928 ft 524 kts 124°
2026-04-24 22:22 24.59779 -80.02396 38928 ft 524 kts 124°
2026-04-24 22:22 24.55673 -79.95802 38929 ft 523 kts 124°
2026-04-24 22:23 24.51584 -79.89245 38926 ft 523 kts 124°
2026-04-24 22:23 24.47469 -79.82655 38928 ft 523 kts 124°
2026-04-24 22:24 24.43379 -79.76114 38928 ft 523 kts 124°
2026-04-24 22:24 24.39257 -79.69530 38928 ft 523 kts 124°
2026-04-24 22:25 24.35135 -79.62953 38929 ft 522 kts 124°
2026-04-24 22:25 24.31054 -79.56451 38925 ft 521 kts 124°
2026-04-24 22:26 24.26939 -79.49903 38920 ft 520 kts 124°
2026-04-24 22:26 24.22847 -79.43401 38923 ft 520 kts 124°
2026-04-24 22:27 24.18746 -79.36893 38911 ft 520 kts 124°
2026-04-24 22:27 24.14649 -79.30399 38913 ft 520 kts 125°
2026-04-24 22:28 24.10532 -79.23881 38905 ft 520 kts 124°
2026-04-24 22:28 24.06355 -79.17459 38911 ft 520 kts 130°
2026-04-24 22:29 23.98415 -79.09569 38912 ft 512 kts 150°
2026-04-24 22:29 23.92120 -79.06056 38910 ft 503 kts 164°
2026-04-24 22:30 23.85453 -79.04097 38908 ft 495 kts 175°
2026-04-24 22:30 23.78669 -79.02770 38903 ft 495 kts 175°
2026-04-24 22:31 23.71867 -79.01434 38913 ft 495 kts 175°
2026-04-24 22:31 23.65085 -79.00101 38915 ft 495 kts 175°
2026-04-24 22:32 23.58318 -78.98770 38919 ft 495 kts 175°
2026-04-24 22:32 23.51513 -78.97432 38918 ft 496 kts 175°
2026-04-24 22:33 23.44694 -78.96092 38921 ft 496 kts 175°
2026-04-24 22:33 23.37899 -78.94758 38913 ft 497 kts 175°
2026-04-24 22:34 23.31089 -78.93421 38914 ft 497 kts 175°
2026-04-24 22:34 23.24296 -78.92088 38914 ft 497 kts 175°
2026-04-24 22:35 23.17473 -78.90750 38910 ft 497 kts 175°
2026-04-24 22:35 23.10652 -78.89412 38911 ft 497 kts 175°
2026-04-24 22:36 23.03833 -78.88075 38915 ft 498 kts 175°
2026-04-24 22:36 22.97041 -78.86745 38906 ft 498 kts 175°
2026-04-24 22:37 22.90213 -78.85408 38906 ft 498 kts 176°
2026-04-24 22:37 22.83341 -78.84065 38904 ft 499 kts 175°
2026-04-24 22:38 22.76509 -78.82730 38907 ft 499 kts 176°
2026-04-24 22:38 22.69715 -78.81405 38906 ft 498 kts 175°
2026-04-24 22:39 22.62877 -78.80072 38906 ft 499 kts 175°
2026-04-24 22:39 22.56012 -78.78735 38907 ft 499 kts 175°
2026-04-24 22:40 22.49157 -78.77402 38906 ft 500 kts 175°
2026-04-24 22:40 22.42277 -78.76067 38909 ft 501 kts 175°
2026-04-24 22:41 22.35404 -78.74733 38908 ft 500 kts 175°
2026-04-24 22:41 22.28552 -78.73405 38912 ft 501 kts 175°
2026-04-24 22:42 22.21656 -78.72070 38913 ft 501 kts 175°
2026-04-24 22:42 22.14815 -78.70746 38911 ft 501 kts 175°
2026-04-24 22:43 22.07972 -78.69423 38907 ft 500 kts 175°
2026-04-24 22:43 22.01099 -78.68096 38906 ft 500 kts 175°
2026-04-24 22:44 21.94256 -78.66776 38906 ft 501 kts 175°
2026-04-24 22:44 21.87367 -78.65449 38909 ft 501 kts 175°
2026-04-24 22:45 21.80484 -78.64123 38909 ft 502 kts 175°
2026-04-24 22:45 21.73599 -78.62800 38906 ft 502 kts 175°
2026-04-24 22:46 21.66731 -78.61480 38899 ft 502 kts 175°
2026-04-24 22:46 21.59824 -78.60154 38902 ft 502 kts 175°
2026-04-24 22:47 21.52953 -78.58836 38898 ft 502 kts 175°
2026-04-24 22:47 21.46062 -78.57515 38901 ft 502 kts 175°
2026-04-24 22:48 21.39157 -78.56194 38894 ft 502 kts 175°
2026-04-24 22:48 21.32263 -78.54875 38895 ft 503 kts 175°
2026-04-24 22:49 21.25389 -78.53562 38897 ft 502 kts 175°
2026-04-24 22:49 21.18494 -78.52246 38892 ft 502 kts 175°
2026-04-24 22:50 21.11583 -78.50928 38892 ft 502 kts 174°
2026-04-24 22:50 21.04693 -78.49616 38883 ft 502 kts 174°
2026-04-24 22:51 20.97827 -78.48309 38874 ft 502 kts 174°
2026-04-24 22:51 20.90949 -78.47001 38877 ft 502 kts 174°
2026-04-24 22:52 20.84016 -78.45683 38889 ft 501 kts 174°
2026-04-24 22:52 20.77181 -78.44385 38883 ft 500 kts 174°
2026-04-24 22:53 20.70289 -78.43079 38889 ft 500 kts 174°
2026-04-24 22:53 20.63435 -78.41779 38889 ft 500 kts 174°
2026-04-24 22:54 20.56588 -78.40484 38894 ft 499 kts 174°
2026-04-24 22:54 20.49741 -78.39189 38891 ft 499 kts 174°
2026-04-24 22:55 20.42915 -78.37899 38891 ft 499 kts 174°
2026-04-24 22:55 20.36075 -78.36608 38889 ft 500 kts 174°
2026-04-24 22:56 20.29217 -78.35315 38889 ft 499 kts 174°
2026-04-24 22:56 20.22374 -78.34025 38893 ft 498 kts 174°
2026-04-24 22:57 20.15529 -78.32736 38887 ft 497 kts 174°
2026-04-24 22:57 20.08728 -78.31458 38887 ft 498 kts 174°
2026-04-24 22:58 20.01893 -78.30173 38882 ft 498 kts 174°
2026-04-24 22:58 19.95078 -78.28799 38885 ft 499 kts 172°
2026-04-24 22:59 19.88295 -78.27229 38886 ft 497 kts 172°
2026-04-24 23:00 19.78150 -78.24889 38886 ft 496 kts 172°
2026-04-24 23:00 19.71426 -78.23341 38888 ft 496 kts 172°
2026-04-24 23:01 19.64676 -78.21788 38887 ft 496 kts 172°
2026-04-24 23:01 19.57896 -78.20230 38887 ft 495 kts 172°
2026-04-24 23:02 19.51207 -78.18694 38888 ft 494 kts 172°
2026-04-24 23:02 19.44445 -78.17144 38884 ft 493 kts 172°
2026-04-24 23:03 19.37771 -78.15614 38886 ft 492 kts 172°
2026-04-24 23:03 19.31041 -78.14073 38888 ft 492 kts 172°
2026-04-24 23:04 19.24339 -78.12540 38890 ft 491 kts 172°
2026-04-24 23:04 19.17676 -78.11018 38889 ft 491 kts 172°
2026-04-24 23:05 19.10981 -78.09489 38885 ft 491 kts 171°
2026-04-24 23:05 19.04270 -78.07958 38885 ft 491 kts 172°
2026-04-24 23:06 18.97587 -78.06435 38888 ft 491 kts 172°
2026-04-24 23:06 18.90884 -78.04909 38894 ft 490 kts 172°
2026-04-24 23:07 18.84239 -78.03396 38905 ft 489 kts 172°
2026-04-24 23:07 18.77554 -78.01876 38906 ft 488 kts 172°
2026-04-24 23:08 18.70918 -78.00368 38898 ft 487 kts 172°
2026-04-24 23:08 18.64277 -77.98860 38901 ft 487 kts 172°
2026-04-24 23:09 18.57647 -77.97356 38903 ft 487 kts 172°
2026-04-24 23:09 18.50966 -77.95843 38903 ft 487 kts 172°
2026-04-24 23:10 18.44356 -77.94345 38911 ft 487 kts 172°
2026-04-24 23:10 18.37717 -77.92843 38924 ft 486 kts 172°
2026-04-24 23:11 18.31081 -77.91342 38936 ft 486 kts 172°
2026-04-24 23:11 18.24492 -77.89854 38947 ft 486 kts 172°
2026-04-24 23:12 18.17865 -77.88357 38940 ft 486 kts 172°
2026-04-24 23:12 18.11204 -77.86855 38927 ft 486 kts 172°
2026-04-24 23:13 18.04604 -77.85367 38912 ft 485 kts 172°
2026-04-24 23:13 17.97984 -77.83876 38903 ft 484 kts 172°
2026-04-24 23:14 17.91372 -77.82388 38913 ft 484 kts 172°
2026-04-24 23:14 17.84810 -77.80911 38912 ft 483 kts 172°
2026-04-24 23:15 17.78201 -77.79426 38906 ft 482 kts 172°
2026-04-24 23:15 17.71629 -77.77950 38906 ft 481 kts 172°
2026-04-24 23:16 17.65089 -77.76482 38908 ft 480 kts 173°
2026-04-24 23:16 17.58547 -77.75016 38904 ft 478 kts 173°
2026-04-24 23:17 17.52055 -77.73561 38899 ft 477 kts 173°
2026-04-24 23:17 17.45543 -77.72103 38907 ft 476 kts 173°
2026-04-24 23:18 17.39077 -77.70656 38900 ft 476 kts 173°
2026-04-24 23:18 17.32585 -77.69205 38903 ft 475 kts 173°
2026-04-24 23:19 17.26117 -77.67760 38886 ft 474 kts 173°
2026-04-24 23:19 17.19697 -77.66327 38886 ft 473 kts 173°
2026-04-24 23:20 17.13219 -77.64881 38886 ft 471 kts 173°
2026-04-24 23:20 17.06827 -77.63457 38884 ft 470 kts 173°
2026-04-24 23:21 17.00395 -77.62024 38891 ft 470 kts 173°
2026-04-24 23:21 16.94027 -77.60607 38878 ft 469 kts 174°
2026-04-24 23:22 16.87638 -77.59186 38885 ft 468 kts 173°
2026-04-24 23:22 16.81262 -77.57767 38891 ft 465 kts 174°
2026-04-24 23:23 16.74927 -77.56361 38902 ft 463 kts 174°
2026-04-24 23:23 16.68603 -77.54957 38903 ft 462 kts 174°
2026-04-24 23:24 16.62307 -77.53560 38911 ft 461 kts 174°
2026-04-24 23:24 16.56033 -77.52170 38917 ft 460 kts 174°
2026-04-24 23:25 16.49759 -77.50780 38911 ft 459 kts 174°
2026-04-24 23:25 16.43544 -77.49403 38908 ft 456 kts 174°
2026-04-24 23:26 16.37339 -77.48031 38902 ft 455 kts 174°
2026-04-24 23:26 16.31131 -77.46659 38906 ft 454 kts 174°
2026-04-24 23:27 16.24937 -77.45291 38905 ft 453 kts 174°
2026-04-24 23:27 16.18790 -77.43934 38904 ft 450 kts 174°
2026-04-24 23:28 16.12651 -77.42579 38910 ft 448 kts 175°
2026-04-24 23:28 16.06552 -77.41234 38904 ft 446 kts 174°
2026-04-24 23:29 16.00488 -77.39899 38907 ft 446 kts 174°
2026-04-24 23:29 15.94413 -77.38616 38905 ft 445 kts 176°
2026-04-24 23:30 15.88314 -77.37403 38908 ft 444 kts 176°
2026-04-24 23:30 15.82244 -77.36195 38907 ft 442 kts 176°
2026-04-24 23:31 15.76187 -77.34990 38907 ft 441 kts 176°
2026-04-24 23:31 15.70154 -77.33790 38906 ft 440 kts 176°
2026-04-24 23:32 15.64130 -77.32592 38906 ft 439 kts 176°
2026-04-24 23:32 15.58109 -77.31396 38910 ft 440 kts 176°
2026-04-24 23:33 15.52074 -77.30197 38907 ft 440 kts 176°
2026-04-24 23:33 15.46070 -77.29006 38906 ft 440 kts 176°
2026-04-24 23:34 15.40046 -77.27811 38908 ft 440 kts 176°
2026-04-24 23:34 15.33984 -77.26608 38905 ft 439 kts 176°
2026-04-24 23:35 15.27993 -77.25421 38904 ft 439 kts 176°
2026-04-24 23:35 15.21973 -77.24229 38902 ft 439 kts 176°
2026-04-24 23:36 15.15933 -77.23034 38902 ft 440 kts 176°
2026-04-24 23:36 15.09923 -77.21845 38903 ft 440 kts 176°
2026-04-24 23:37 15.03895 -77.20653 38902 ft 439 kts 176°
2026-04-24 23:37 14.94848 -77.18845 38903 ft 438 kts 175°
2026-04-24 23:38 14.88884 -77.17644 38901 ft 437 kts 175°
2026-04-24 23:38 14.82879 -77.16434 38889 ft 438 kts 175°
2026-04-24 23:39 14.76880 -77.15228 38886 ft 438 kts 175°
2026-04-24 23:39 14.70885 -77.14021 38893 ft 438 kts 175°
2026-04-24 23:40 14.64870 -77.12813 38898 ft 439 kts 175°
2026-04-24 23:40 14.58847 -77.11603 38903 ft 440 kts 175°
2026-04-24 23:41 14.52822 -77.10393 38907 ft 440 kts 175°
2026-04-24 23:41 14.46795 -77.09184 38905 ft 440 kts 175°
2026-04-24 23:42 14.40799 -77.07981 38906 ft 440 kts 174°
2026-04-24 23:42 14.34781 -77.06775 38907 ft 440 kts 174°
2026-04-24 23:43 14.28719 -77.05560 38905 ft 440 kts 174°
2026-04-24 23:43 14.22724 -77.04359 38906 ft 440 kts 174°
2026-04-24 23:44 14.16679 -77.03150 38907 ft 440 kts 174°
2026-04-24 23:44 14.10654 -77.01945 38906 ft 440 kts 174°
2026-04-24 23:45 14.04621 -77.00738 38906 ft 441 kts 174°
2026-04-24 23:45 13.98549 -76.99526 38906 ft 441 kts 174°
2026-04-24 23:46 13.92506 -76.98319 38906 ft 441 kts 174°
2026-04-24 23:46 13.86446 -76.97109 38907 ft 441 kts 174°
2026-04-24 23:47 13.80423 -76.95908 38906 ft 441 kts 173°
2026-04-24 23:47 13.74371 -76.94701 38906 ft 441 kts 173°
2026-04-24 23:48 13.68352 -76.93501 38906 ft 440 kts 173°
2026-04-24 23:48 13.62329 -76.92301 38907 ft 440 kts 173°
2026-04-24 23:49 13.56275 -76.91096 38908 ft 440 kts 173°
2026-04-24 23:49 13.50261 -76.89899 38906 ft 440 kts 173°
2026-04-24 23:50 13.44263 -76.88707 38905 ft 439 kts 173°
2026-04-24 23:50 13.38241 -76.87510 38900 ft 439 kts 173°
2026-04-24 23:51 13.32211 -76.86311 38899 ft 439 kts 173°
2026-04-24 23:51 13.26194 -76.85117 38902 ft 439 kts 173°
2026-04-24 23:52 13.20198 -76.83926 38902 ft 439 kts 173°
2026-04-24 23:52 13.14192 -76.82735 38894 ft 439 kts 173°
2026-04-24 23:53 13.08170 -76.81541 38888 ft 439 kts 173°
2026-04-24 23:53 13.02128 -76.80344 38883 ft 439 kts 173°
2026-04-24 23:54 12.96128 -76.79155 38886 ft 439 kts 173°
2026-04-24 23:54 12.90122 -76.77966 38886 ft 439 kts 172°
2026-04-24 23:55 12.84106 -76.76775 38884 ft 439 kts 172°
2026-04-24 23:55 12.78095 -76.75587 38885 ft 439 kts 172°
2026-04-24 23:56 12.72072 -76.74396 38885 ft 439 kts 172°
2026-04-24 23:56 12.66055 -76.73209 38885 ft 438 kts 172°
2026-04-24 23:57 12.60089 -76.72037 38890 ft 437 kts 172°
2026-04-24 23:57 12.54077 -76.70856 38899 ft 437 kts 172°
2026-04-24 23:58 12.48087 -76.69680 38907 ft 437 kts 172°
2026-04-24 23:58 12.42083 -76.68503 38906 ft 438 kts 172°
2026-04-24 23:59 12.36102 -76.67330 38906 ft 438 kts 172°
2026-04-24 23:59 12.30065 -76.66146 38906 ft 438 kts 172°
2026-04-25 00:00 12.24102 -76.64978 38907 ft 438 kts 172°
2026-04-25 00:00 12.18070 -76.63797 38906 ft 438 kts 172°
2026-04-25 00:01 12.12093 -76.62627 38907 ft 438 kts 172°
2026-04-25 00:01 12.06061 -76.61446 38903 ft 437 kts 172°
2026-04-25 00:02 12.00083 -76.60278 38907 ft 437 kts 172°
2026-04-25 00:02 11.94100 -76.59108 38905 ft 437 kts 172°
2026-04-25 00:03 11.88110 -76.57937 38907 ft 437 kts 172°
2026-04-25 00:03 11.82096 -76.56763 38906 ft 437 kts 172°
2026-04-25 00:04 11.76098 -76.55592 38908 ft 437 kts 172°
2026-04-25 00:04 11.70129 -76.54427 38905 ft 437 kts 172°
2026-04-25 00:05 11.64151 -76.53260 38908 ft 437 kts 172°
2026-04-25 00:05 11.58169 -76.52093 38907 ft 437 kts 172°
2026-04-25 00:06 11.52175 -76.50925 38902 ft 437 kts 172°
2026-04-25 00:06 11.46208 -76.49763 38900 ft 437 kts 171°
2026-04-25 00:07 11.40199 -76.48593 38893 ft 437 kts 171°
2026-04-25 00:07 11.34219 -76.47429 38892 ft 437 kts 171°
2026-04-25 00:08 11.28257 -76.46268 38892 ft 437 kts 171°
2026-04-25 00:08 11.22270 -76.45104 38890 ft 437 kts 172°
2026-04-25 00:09 11.16281 -76.43939 38891 ft 436 kts 172°
2026-04-25 00:09 11.10289 -76.42775 38897 ft 436 kts 171°
2026-04-25 00:10 11.04347 -76.41621 38898 ft 436 kts 171°
2026-04-25 00:10 10.98364 -76.40459 38904 ft 437 kts 171°
2026-04-25 00:11 10.92367 -76.39294 38903 ft 437 kts 172°
2026-04-25 00:11 10.86383 -76.38133 38904 ft 437 kts 172°
2026-04-25 00:12 10.80364 -76.36966 38902 ft 437 kts 171°
2026-04-25 00:12 10.74398 -76.35809 38900 ft 437 kts 171°
2026-04-25 00:13 10.68403 -76.34647 38901 ft 438 kts 172°
2026-04-25 00:13 10.62373 -76.33478 38897 ft 438 kts 172°
2026-04-25 00:14 10.56387 -76.32319 38894 ft 439 kts 172°
2026-04-25 00:14 10.50364 -76.31153 38894 ft 439 kts 171°
2026-04-25 00:15 10.44361 -76.29991 38897 ft 440 kts 172°
2026-04-25 00:15 10.38315 -76.28822 38903 ft 440 kts 172°
2026-04-25 00:16 10.32292 -76.27657 38904 ft 441 kts 171°
2026-04-25 00:16 10.26253 -76.26489 38895 ft 441 kts 171°
2026-04-25 00:17 10.20182 -76.25316 38885 ft 441 kts 171°
2026-04-25 00:17 10.14150 -76.24151 38886 ft 441 kts 171°
2026-04-25 00:18 10.08071 -76.22977 38886 ft 442 kts 171°
2026-04-25 00:18 10.02000 -76.21805 38884 ft 443 kts 171°
2026-04-25 00:19 9.95915 -76.20631 38886 ft 444 kts 171°
2026-04-25 00:19 9.89855 -76.19462 38885 ft 445 kts 171°
2026-04-25 00:20 9.83723 -76.18279 38886 ft 445 kts 171°
2026-04-25 00:20 9.77632 -76.17104 38885 ft 445 kts 171°
2026-04-25 00:21 9.71545 -76.15931 38887 ft 444 kts 171°
2026-04-25 00:21 9.65502 -76.14767 38885 ft 444 kts 171°
2026-04-25 00:22 9.59400 -76.13592 38887 ft 444 kts 171°
2026-04-25 00:22 9.53306 -76.12392 38884 ft 445 kts 171°
2026-04-25 00:23 9.47199 -76.11172 38884 ft 445 kts 171°
2026-04-25 00:23 9.41102 -76.09953 38885 ft 445 kts 170°
2026-04-25 00:24 9.35005 -76.08736 38887 ft 445 kts 170°
2026-04-25 00:24 9.28939 -76.07526 38887 ft 445 kts 170°
2026-04-25 00:25 9.22846 -76.06310 38890 ft 446 kts 170°
2026-04-25 00:25 9.16736 -76.05092 38890 ft 446 kts 170°
2026-04-25 00:26 9.10613 -76.03872 38888 ft 446 kts 170°
2026-04-25 00:26 9.04512 -76.02656 38888 ft 446 kts 170°
2026-04-25 00:27 8.98406 -76.01440 38893 ft 446 kts 170°
2026-04-25 00:27 8.92272 -76.00218 38888 ft 446 kts 170°
2026-04-25 00:28 8.86181 -75.99006 38889 ft 447 kts 170°
2026-04-25 00:28 8.80034 -75.97783 38889 ft 447 kts 170°
2026-04-25 00:29 8.73928 -75.96568 38892 ft 448 kts 169°
2026-04-25 00:29 8.67782 -75.95346 38894 ft 447 kts 169°
2026-04-25 00:30 8.61651 -75.94127 38894 ft 447 kts 169°
2026-04-25 00:30 8.55534 -75.92911 38900 ft 447 kts 169°
2026-04-25 00:31 8.49405 -75.91693 38902 ft 447 kts 169°
2026-04-25 00:31 8.43263 -75.90474 38917 ft 447 kts 169°
2026-04-25 00:32 8.37149 -75.89259 38923 ft 447 kts 169°
2026-04-25 00:32 8.31018 -75.88042 38928 ft 448 kts 169°
2026-04-25 00:33 8.24890 -75.86826 38931 ft 447 kts 169°
2026-04-25 00:33 8.18748 -75.85608 38952 ft 446 kts 169°
2026-04-25 00:34 8.12661 -75.84401 38960 ft 447 kts 169°
2026-04-25 00:34 8.06522 -75.83184 38981 ft 447 kts 169°
2026-04-25 00:35 8.00391 -75.81969 38982 ft 447 kts 169°
2026-04-25 00:35 7.94251 -75.80845 38993 ft 447 kts 170°
2026-04-25 00:36 7.88112 -75.79777 38989 ft 447 kts 170°
2026-04-25 00:36 7.81969 -75.78706 38987 ft 447 kts 170°
2026-04-25 00:37 7.75807 -75.77633 38980 ft 445 kts 170°
2026-04-25 00:37 7.69684 -75.76566 39008 ft 445 kts 170°
2026-04-25 00:38 7.63562 -75.75499 39040 ft 445 kts 170°
2026-04-25 00:38 7.57448 -75.74434 39087 ft 446 kts 170°
2026-04-25 00:39 7.51298 -75.73362 39104 ft 446 kts 170°
2026-04-25 00:39 7.45165 -75.72294 39141 ft 445 kts 169°
2026-04-25 00:40 7.39007 -75.71221 39126 ft 446 kts 169°
2026-04-25 00:40 7.32848 -75.70149 39144 ft 446 kts 169°
2026-04-25 00:41 7.26735 -75.69085 39155 ft 446 kts 169°
2026-04-25 00:41 7.20598 -75.68017 39169 ft 446 kts 169°
2026-04-25 00:42 7.17502 -75.67477 38926 ft 449 kts 169°
2026-04-25 00:42 7.14407 -75.66939 38403 ft 445 kts 169°
2026-04-25 00:42 7.11374 -75.66412 37906 ft 440 kts 169°
2026-04-25 00:42 7.08347 -75.65884 37354 ft 438 kts 169°
2026-04-25 00:43 7.05354 -75.65363 36791 ft 437 kts 169°
2026-04-25 00:43 7.02325 -75.64837 36233 ft 436 kts 169°
2026-04-25 00:43 6.99326 -75.64314 35654 ft 436 kts 169°
2026-04-25 00:43 6.96377 -75.63801 35094 ft 435 kts 169°
2026-04-25 00:44 6.93361 -75.63276 34518 ft 435 kts 169°
2026-04-25 00:44 6.90357 -75.62753 33965 ft 435 kts 169°
2026-04-25 00:44 6.87352 -75.62230 33407 ft 436 kts 169°
2026-04-25 00:44 6.84382 -75.61713 32842 ft 437 kts 169°
2026-04-25 00:45 6.81351 -75.61186 32285 ft 439 kts 169°
2026-04-25 00:45 6.78353 -75.60670 31719 ft 440 kts 169°
2026-04-25 00:45 6.75304 -75.60150 31174 ft 443 kts 169°
2026-04-25 00:45 6.72246 -75.59628 30590 ft 445 kts 169°
2026-04-25 00:46 6.69185 -75.59106 29969 ft 445 kts 169°
2026-04-25 00:46 6.66133 -75.58586 29358 ft 441 kts 169°
2026-04-25 00:46 6.60175 -75.57571 28177 ft 430 kts 169°
2026-04-25 00:47 6.57185 -75.57061 27580 ft 425 kts 169°
2026-04-25 00:47 6.54301 -75.56570 27007 ft 421 kts 169°
2026-04-25 00:47 6.51388 -75.56074 26426 ft 417 kts 169°
2026-04-25 00:47 6.48526 -75.55586 25866 ft 412 kts 169°
2026-04-25 00:48 6.45715 -75.55108 25333 ft 407 kts 169°
2026-04-25 00:48 6.42959 -75.54639 24808 ft 403 kts 169°
2026-04-25 00:48 6.40196 -75.54176 24351 ft 397 kts 171°
2026-04-25 00:48 6.37413 -75.54003 23796 ft 395 kts 178°
2026-04-25 00:49 6.34697 -75.53964 23274 ft 392 kts 178°
2026-04-25 00:49 6.31957 -75.53918 22747 ft 387 kts 178°
2026-04-25 00:49 6.29283 -75.53872 22229 ft 384 kts 178°
2026-04-25 00:49 6.26606 -75.53825 21724 ft 380 kts 178°
2026-04-25 00:50 6.24064 -75.53781 21235 ft 377 kts 179°
2026-04-25 00:50 6.21420 -75.53735 20727 ft 373 kts 179°
2026-04-25 00:50 6.18838 -75.53690 20227 ft 370 kts 179°
2026-04-25 00:50 6.16264 -75.53645 19731 ft 366 kts 179°
2026-04-25 00:51 6.13747 -75.53600 19246 ft 362 kts 179°
2026-04-25 00:51 6.11245 -75.53598 18707 ft 355 kts 180°
2026-04-25 00:51 6.08768 -75.53619 18112 ft 350 kts 180°
2026-04-25 00:51 6.06368 -75.53639 17643 ft 341 kts 180°
2026-04-25 00:52 6.03986 -75.53659 17168 ft 333 kts 180°
2026-04-25 00:52 6.01721 -75.53678 16732 ft 323 kts 181°
2026-04-25 00:52 5.99488 -75.53697 16303 ft 315 kts 181°
2026-04-25 00:52 5.97309 -75.53715 15886 ft 307 kts 181°
2026-04-25 00:53 5.95195 -75.53735 15485 ft 300 kts 180°
2026-04-25 00:53 5.93116 -75.53740 15087 ft 294 kts 177°
2026-04-25 00:53 5.91124 -75.53336 14594 ft 293 kts 158°
2026-04-25 00:53 5.89415 -75.52261 14188 ft 288 kts 136°
2026-04-25 00:54 5.88244 -75.50693 14053 ft 273 kts 115°
2026-04-25 00:54 5.87664 -75.48953 14048 ft 252 kts 99°
2026-04-25 00:54 5.87521 -75.47268 14042 ft 243 kts 89°
2026-04-25 00:54 5.87542 -75.45588 13968 ft 234 kts 84°
2026-04-25 00:55 5.87915 -75.44024 13384 ft 232 kts 64°
2026-04-25 00:55 5.88903 -75.42774 12600 ft 229 kts 34°
2026-04-25 00:55 5.90283 -75.42230 12212 ft 206 kts
2026-04-25 00:55 5.91696 -75.42213 12075 ft 202 kts 359°
2026-04-25 00:56 5.93071 -75.42187 11972 ft 185 kts 359°
2026-04-25 00:56 5.94397 -75.42184 11385 ft 194 kts 359°
2026-04-25 00:56 5.95718 -75.42188 10888 ft 190 kts 359°
2026-04-25 00:56 5.97036 -75.42196 10350 ft 186 kts 359°
2026-04-25 00:57 5.98306 -75.42203 10079 ft 182 kts 359°
2026-04-25 00:57 5.99602 -75.42212 9814 ft 186 kts 360°
2026-04-25 00:57 6.00905 -75.42220 9573 ft 186 kts 359°
2026-04-25 00:57 6.02209 -75.42229 9334 ft 187 kts 359°
2026-04-25 00:58 6.03500 -75.42237 9100 ft 184 kts 359°
2026-04-25 00:58 6.04713 -75.42245 8881 ft 161 kts 359°
2026-04-25 00:58 6.05812 -75.42252 8665 ft 157 kts 359°
2026-04-25 00:58 6.06895 -75.42258 8473 ft 153 kts 359°
2026-04-25 00:59 6.07953 -75.42265 8277 ft 151 kts 360°
2026-04-25 00:59 6.09011 -75.42272 8085 ft 150 kts 359°
2026-04-25 00:59 6.09995 -75.42278 7899 ft 150 kts
2026-04-25 00:59 6.11040 -75.42278 7717 ft 149 kts
2026-04-25 01:00 6.12082 -75.42281 7522 ft 149 kts
2026-04-25 01:00 6.13126 -75.42290 7336 ft 148 kts
2026-04-25 01:00 6.14156 -75.42297 7147 ft 147 kts
2026-04-25 01:00 6.15192 -75.42304 6973 ft 143 kts
2026-04-25 01:01 6.16074 -75.42306 6970 ft 101 kts 357°
2026-04-25 01:01 6.16426 -75.42310 6970 ft 35 kts 358°
2026-04-25 01:01 6.16698 -75.42314 6974 ft 41 kts 359°
2026-04-25 01:01 6.16964 -75.42345 6984 ft 35 kts 340°
2026-04-25 01:02 6.17129 -75.42428 6991 ft 20 kts 331°
2026-04-25 01:02 6.17161 -75.42446 6992 ft 0 kts 329°
2026-04-25 01:04 6.17162 -75.42447 6993 ft 2 kts 328°
2026-04-25 01:04 6.17185 -75.42496 6995 ft 9 kts 274°
2026-04-25 01:04 6.17186 -75.42574 6998 ft 12 kts 277°
2026-04-25 01:05 6.17255 -75.42619 6999 ft 14 kts 354°
2026-04-25 01:05 6.17318 -75.42674 7002 ft 13 kts 301°
2026-04-25 01:05 6.17371 -75.42757 7006 ft 14 kts 295°
2026-04-25 01:05 6.17401 -75.42860 7011 ft 15 kts 285°
2026-04-25 01:06 6.17399 -75.42954 7013 ft 13 kts 271°
2026-04-25 01:06 6.17424 -75.43051 7017 ft 5 kts 307°
2026-04-25 01:06 6.17460 -75.43053 7018 ft 3 kts
2026-04-25 01:06 6.17467 -75.43051 7019 ft 0 kts 12°